Weather History for KOTG - November, 2011

Change the Weather History Date:

Wednesday, November 9, 2011

  Actual Average Record
Temperature  
Mean Temperature 34 °F -  
Max Temperature 44 °F 42 °F 69 °F (1999)
Min Temperature 24 °F 26 °F 5 °F (1991)
Degree Days  
Heating Degree Days 31    
Moisture  
Dew Point 17 °F    
Average Humidity 52    
Maximum Humidity 64    
Minimum Humidity 31    
Precipitation  
Precipitation 0.00 in - - ()
Sea Level Pressure  
Sea Level Pressure 30.13 in    
Wind  
Wind Speed 13 mph (NW)    
Max Wind Speed 26 mph    
Max Gust Speed 37 mph    
Visibility 10 miles    
Events      
Averages and records for this station are not official NWS values.
T = Trace of Precipitation, MM = Missing Value Source: NWS Daily Summary

Daily Weather History Graph

Daily Weather History Graph

Search for Another Location

Airport or City:

Trip Planner

Search our weather history database for the weather conditions in past years. The results will help you decide how hot, cold, wet, or windy it might be!

Date:

Astronomy

Nov. 09, 2011 Rise Set
Actual Time 7:08 AM CST 5:03 PM CST
Civil Twilight 6:37 AM CST 5:33 PM CST
Nautical Twilight 6:03 AM CST 6:08 PM CST
Astronomical Twilight 5:29 AM CST 6:41 PM CST
Moon 4:15 PM CST (11/9) 6:04 AM CST (11/9)
Length of Visible Light 10h 56m
Length of Day
9h 55m
Waxing Gibbous, 99% of the Moon is Illuminated
Nov 9
Waxing Gibbous
Nov 10
Full
Nov 18
Last Quarter
Nov 25
New
Dec 2
First Quarter

Hourly Weather History & Observations

Time (CST) Temp. Windchill Dew Point Humidity Pressure Visibility Wind Dir Wind Speed Gust Speed Precip Events Conditions
12:15 AM 30.2 °F 21.9 °F 17.6 °F 60% 30.13 in 10.0 mi NW 9.2 mph - N/A   Clear
12:35 AM 30.2 °F 23.4 °F 17.6 °F 60% 30.15 in 10.0 mi NNW 6.9 mph - N/A   Clear
12:55 AM 30.2 °F 23.4 °F 17.6 °F 60% 30.15 in 10.0 mi NNW 6.9 mph - N/A   Clear
1:15 AM 30.2 °F 23.4 °F 15.8 °F 55% 30.14 in 10.0 mi NNW 6.9 mph - N/A   Clear
1:35 AM 28.4 °F 19.7 °F 15.8 °F 59% 30.14 in 10.0 mi NNW 9.2 mph - N/A   Clear
1:55 AM 30.2 °F 21.3 °F 17.6 °F 60% 30.13 in 10.0 mi NW 10.4 mph - N/A   Clear
2:15 AM 32.0 °F 24.8 °F 17.6 °F 55% 30.13 in 10.0 mi NNW 8.1 mph - N/A   Clear
2:35 AM 30.2 °F 21.9 °F 17.6 °F 60% 30.13 in 10.0 mi NW 9.2 mph - N/A   Clear
2:55 AM 30.2 °F 21.3 °F 17.6 °F 60% 30.13 in 10.0 mi NW 10.4 mph - N/A   Clear
4:15 AM 30.2 °F 21.9 °F 17.6 °F 60% 30.11 in 10.0 mi NW 9.2 mph - N/A   Clear
4:35 AM 28.4 °F 21.2 °F 17.6 °F 64% 30.11 in 10.0 mi NW 6.9 mph - N/A   Clear
4:55 AM 28.4 °F 20.4 °F 15.8 °F 59% 30.11 in 10.0 mi WNW 8.1 mph - N/A   Clear
5:15 AM 28.4 °F 20.4 °F 15.8 °F 59% 30.11 in 10.0 mi WNW 8.1 mph - N/A   Clear
5:35 AM 28.4 °F 24.6 °F 15.8 °F 59% 30.12 in 10.0 mi NW 3.5 mph - N/A   Clear
5:55 AM 28.4 °F 23.3 °F 15.8 °F 59% 30.12 in 10.0 mi West 4.6 mph - N/A   Clear
6:15 AM 24.8 °F 16.1 °F 12.2 °F 59% 30.12 in 10.0 mi WNW 8.1 mph - N/A   Clear
6:35 AM 26.6 °F 17.5 °F 15.8 °F 64% 30.11 in 10.0 mi WNW 9.2 mph - N/A   Clear
6:55 AM 26.6 °F 16.8 °F 15.8 °F 64% 30.08 in 10.0 mi WNW 10.4 mph - N/A   Clear
7:15 AM 26.6 °F 17.5 °F 15.8 °F 64% 30.09 in 10.0 mi NW 9.2 mph - N/A   Clear
7:35 AM 30.2 °F 19.8 °F 17.6 °F 60% 30.09 in 10.0 mi NW 13.8 mph - N/A   Clear
7:55 AM 30.2 °F 20.2 °F 17.6 °F 60% 30.09 in 10.0 mi NW 12.7 mph - N/A   Clear
8:15 AM 30.2 °F 19.3 °F 17.6 °F 60% 30.09 in 10.0 mi NW 15.0 mph - N/A   Clear
8:35 AM - - - N/A% 30.08 in 10.0 mi NW 18.4 mph 25.3 mph N/A   Clear
8:55 AM 35.6 °F 25.2 °F 19.4 °F 52% 30.09 in 10.0 mi NW 18.4 mph - N/A   Clear
9:15 AM 37.4 °F 27.5 °F 19.4 °F 48% 30.09 in 10.0 mi NW 18.4 mph 25.3 mph N/A   Clear
9:35 AM 39.2 °F 29.8 °F 19.4 °F 45% 30.11 in 10.0 mi NW 18.4 mph 24.2 mph N/A   Clear
9:55 AM 39.2 °F 29.6 °F 21.2 °F 49% 30.13 in 10.0 mi NW 19.6 mph 23.0 mph N/A   Clear
10:35 AM - - - N/A% 30.11 in 10.0 mi NW 19.6 mph 27.6 mph N/A   Clear
10:55 AM - - - N/A% 30.14 in 10.0 mi NW 23.0 mph - N/A   Clear
11:15 AM 44.6 °F 36.4 °F 21.2 °F 39% 30.14 in 10.0 mi NW 20.7 mph - N/A   Clear
11:35 AM - - - N/A% 30.13 in 10.0 mi NW 18.4 mph 27.6 mph N/A   Clear
12:15 PM 44.6 °F 36.1 °F 21.2 °F 39% 30.14 in 10.0 mi WNW 21.9 mph 26.5 mph N/A   Clear
12:35 PM - - - N/A% 30.14 in 10.0 mi NW 21.9 mph 28.8 mph N/A   Clear
12:55 PM - - - N/A% 30.13 in 10.0 mi NW 23.0 mph 28.8 mph N/A   Clear
1:15 PM - - - N/A% 30.14 in 10.0 mi NW 24.2 mph 31.1 mph N/A   Clear
1:35 PM - - - N/A% 30.13 in 10.0 mi NW 25.3 mph 31.1 mph N/A   Clear
1:55 PM - - - N/A% 30.13 in 10.0 mi NW 19.6 mph 32.2 mph N/A   Clear
2:15 PM - - - N/A% 30.13 in 10.0 mi NW 25.3 mph 28.8 mph N/A   Clear
2:35 PM - - - N/A% 30.13 in 10.0 mi NW 25.3 mph 31.1 mph N/A   Clear
2:55 PM - - - N/A% 30.13 in 10.0 mi NW 26.5 mph 33.4 mph N/A   Clear
3:15 PM - - - N/A% 30.13 in 10.0 mi NW 24.2 mph 36.8 mph N/A   Clear
3:35 PM - - - N/A% 30.13 in 10.0 mi WNW 24.2 mph 29.9 mph N/A   Clear
3:55 PM 42.8 °F 33.5 °F 14.0 °F 31% 30.14 in 10.0 mi WNW 23.0 mph 27.6 mph N/A   Clear
4:15 PM 42.8 °F 33.3 °F 14.0 °F 31% 30.14 in 10.0 mi WNW 24.2 mph 31.1 mph N/A   Clear
4:35 PM 41.0 °F 31.1 °F 14.0 °F 33% 30.14 in 10.0 mi WNW 23.0 mph 31.1 mph N/A   Clear
5:15 PM 39.2 °F 29.3 °F 12.2 °F 33% 30.14 in 10.0 mi WNW 20.7 mph 25.3 mph N/A   Clear
5:55 PM 37.4 °F 27.8 °F 15.8 °F 41% 30.15 in 10.0 mi NW 17.3 mph 23.0 mph N/A   Clear
6:15 PM 37.4 °F 26.6 °F 15.8 °F 41% 30.15 in 10.0 mi NW 21.9 mph - N/A   Mostly Cloudy
6:35 PM 37.4 °F 27.5 °F 15.8 °F 41% 30.15 in 10.0 mi WNW 18.4 mph 25.3 mph N/A   Overcast
6:55 PM 35.6 °F 25.9 °F 15.8 °F 44% 30.15 in 10.0 mi WNW 16.1 mph 25.3 mph N/A   Mostly Cloudy
7:15 PM 35.6 °F 26.2 °F 15.8 °F 44% 30.14 in 10.0 mi WNW 15.0 mph - N/A   Scattered Clouds
7:35 PM 33.8 °F 25.8 °F 15.8 °F 48% 30.13 in 10.0 mi WNW 10.4 mph - N/A   Partly Cloudy
7:55 PM 33.8 °F 23.2 °F 15.8 °F 48% 30.13 in 10.0 mi WNW 17.3 mph 20.7 mph N/A   Scattered Clouds
8:15 PM 33.8 °F 22.8 °F 15.8 °F 48% 30.14 in 10.0 mi WNW 18.4 mph - N/A   Clear
8:35 PM 33.8 °F 23.5 °F 17.6 °F 52% 30.14 in 10.0 mi WNW 16.1 mph - N/A   Clear
8:55 PM 33.8 °F 23.2 °F 17.6 °F 52% 30.14 in 10.0 mi WNW 17.3 mph - N/A   Clear
9:15 PM 32.0 °F 22.1 °F 17.6 °F 55% 30.14 in 10.0 mi WNW 13.8 mph - N/A   Partly Cloudy
9:35 PM 32.0 °F 22.1 °F 17.6 °F 55% 30.14 in 10.0 mi WNW 13.8 mph - N/A   Mostly Cloudy
9:55 PM 32.0 °F 21.6 °F 17.6 °F 55% 30.14 in 10.0 mi WNW 15.0 mph - N/A   Overcast
10:15 PM 30.2 °F 20.2 °F 15.8 °F 55% 30.14 in 10.0 mi West 12.7 mph - N/A   Mostly Cloudy
10:35 PM 28.4 °F 17.0 °F 15.8 °F 59% 30.13 in 10.0 mi West 15.0 mph - N/A   Clear
10:55 PM 28.4 °F 17.0 °F 15.8 °F 59% 30.13 in 10.0 mi West 15.0 mph - N/A   Clear
11:15 PM 28.4 °F 17.0 °F 15.8 °F 59% 30.12 in 10.0 mi West 15.0 mph - N/A   Clear
11:35 PM 28.4 °F 16.2 °F 15.8 °F 59% 30.12 in 10.0 mi West 17.3 mph - N/A   Clear
11:55 PM 28.4 °F 16.2 °F 15.8 °F 59% 30.12 in 10.0 mi West 17.3 mph - N/A   Clear